Wind_Speed
13 12 11 10 12 13 14 13 12 12 11 11 11 11 11 12 13 14 15 15 15 15 16 17 16 16 15 14 14 14 14 14 13 13 12 11 11 10 10 9 9 8 8 7 6 6 6 5 4 4 3 3 2 1 1 2 4 5 3 4 4 4
13 13 11 10 10 12 13 13 12 11 11 11 11 11 11 12 13 13 14 15 15 15 17 18 18 18 17 16 16 15 15 14 14 13 13 12 10 9 9 9 9 8 8 8 7 7 7 6 5 4 4 3 2 1 1 5 6 4 2 2 2 2
14 14 11 9 10 11 12 13 12 11 11 12 12 12 12 13 14 14 15 15 16 17 17 18 19 19 18 18 17 16 15 14 14 13 12 11 10 9 9 9 8 8 8 7 7 7 7 6 5 5 5 4 3 2 3 6 6 5 4 3 1 0
14 14 12 10 10 11 11 12 11 11 12 12 13 14 14 15 15 15 16 16 17 18 18 19 19 19 19 18 18 17 15 14 14 13 12 12 11 10 9 9 9 8 8 7 7 7 6 6 5 5 5 5 4 3 5 6 6 8 8 6 5 4
15 14 14 13 11 10 10 11 12 12 13 13 14 14 15 16 16 17 17 18 18 18 18 18 19 19 19 18 18 17 16 15 14 14 13 13 12 11 10 10 10 9 9 8 7 7 6 5 5 5 5 5 5 5 5 6 7 9 9 8 8 8
16 15 15 14 13 11 11 11 12 12 13 13 13 14 14 15 16 17 18 18 18 19 18 18 19 19 19 18 18 18 17 16 16 16 15 14 13 12 12 12 12 11 10 9 9 8 7 7 6 6 6 6 5 6 6 6 8 9 9 10 10 8
18 17 16 15 14 13 12 12 12 12 12 13 13 13 14 15 16 16 17 18 18 19 19 20 20 20 20 20 19 19 18 18 18 18 17 16 15 15 14 14 13 12 11 11 10 9 9 8 8 8 7 7 6 6 6 7 9 10 10 10 10 8
19 19 18 16 15 15 14 14 13 13 13 13 13 14 14 15 15 16 16 17 17 18 19 20 20 20 20 20 20 20 19 19 19 19 19 18 17 16 16 15 14 13 13 12 10 10 9 9 9 9 8 8 7 6 6 8 9 10 10 10 10 9
18 19 19 19 17 16 16 16 15 15 14 14 14 14 15 15 15 15 16 16 16 17 19 19 20 20 20 21 21 21 20 19 20 20 20 19 18 18 17 17 16 15 14 12 11 11 10 10 10 10 9 9 8 7 7 8 9 10 10 11 10 10
18 18 19 20 20 19 18 17 16 16 16 16 16 16 17 16 16 15 15 15 15 16 17 18 18 19 19 20 21 21 20 20 21 21 21 20 20 20 20 20 19 19 18 16 15 14 13 13 12 12 11 11 10 10 10 9 10 11 11 12 11 10
17 18 18 19 20 20 21 20 19 18 18 17 18 18 19 18 17 17 16 16 15 15 15 16 16 17 18 20 21 21 20 20 20 20 20 21 20 20 21 21 22 22 22 21 21 20 19 18 17 16 15 14 13 13 13 12 11 12 12 13 12 11
16 17 17 18 19 20 21 22 22 22 21 20 19 20 20 20 19 18 17 16 15 15 14 15 15 16 16 18 20 20 19 19 19 19 19 19 19 19 19 19 20 21 21 22 22 22 22 22 22 21 20 19 18 17 16 14 13 12 13 13 13 12
15 15 16 17 18 19 20 21 22 23 23 22 21 21 21 21 20 20 19 19 17 16 15 14 15 15 16 16 18 18 19 18 18 18 18 18 17 17 18 18 19 19 20 20 21 21 21 22 22 22 22 22 21 21 20 18 16 15 15 15 14 14
13 14 15 16 17 17 18 19 20 21 23 23 23 22 22 21 21 21 21 21 20 19 17 16 15 15 16 16 16 17 18 18 18 17 17 16 16 17 17 17 18 18 19 19 19 19 20 20 20 20 20 20 20 20 20 20 19 19 19 18 16 15
12 12 14 15 15 16 17 18 18 20 21 22 22 23 22 22 21 21 22 22 21 21 20 18 17 16 16 16 17 17 18 17 17 17 16 16 16 16 16 16 16 17 17 18 18 18 18 18 18 18 18 18 18 18 18 19 19 19 19 19 18 17
11 11 13 14 14 15 15 16 17 18 19 20 21 21 21 21 21 21 21 21 21 21 21 20 20 18 18 17 17 17 17 17 16 16 16 15 15 15 15 15 15 16 16 16 16 17 17 16 16 17 17 17 17 17 17 17 17 17 17 17 18 18
10 11 12 13 14 14 15 15 16 17 17 18 19 19 19 20 21 21 21 20 21 21 21 21 21 20 19 18 17 17 17 17 16 16 16 15 15 14 14 14 14 14 15 15 15 16 15 15 15 16 16 16 16 16 16 16 16 16 16 16 16 16
9 10 11 13 13 13 14 14 15 15 16 16 17 18 18 18 19 20 20 20 20 20 20 21 21 20 20 19 18 17 17 17 17 16 16 15 15 14 14 13 13 14 14 15 16 16 16 16 15 16 16 16 16 17 17 16 16 16 16 15 14 14
8 9 11 12 13 13 13 13 14 14 14 15 15 16 17 17 18 18 18 19 19 19 20 20 20 20 19 18 18 17 17 16 16 16 16 15 15 15 15 14 14 15 15 15 16 17 17 17 17 17 17 17 18 18 18 18 17 17 16 15 14 13
8 10 11 12 13 13 13 13 14 14 14 15 15 15 16 16 16 17 17 17 17 18 18 19 19 19 18 18 17 17 17 16 16 16 16 16 16 16 16 15 15 15 15 15 15 16 16 16 16 17 17 17 17 17 18 18 18 18 18 17 16 15
8 10 11 13 13 14 14 15 15 15 15 16 16 16 16 16 16 16 16 16 17 17 17 17 17 17 17 16 16 16 16 16 15 15 15 15 15 15 15 14 14 14 14 13 13 14 14 14 15 15 15 15 15 15 15 16 16 16 17 17 17 17
9 10 12 13 14 15 16 16 17 17 17 17 17 17 17 18 17 17 17 17 17 17 17 17 17 16 16 15 15 14 14 14 14 13 13 13 13 13 12 12 12 12 12 12 12 12 12 12 12 13 13 13 13 13 13 13 14 14 14 15 15 16
10 11 13 14 15 16 17 17 17 18 18 18 18 19 19 19 19 19 19 19 18 18 18 18 17 17 16 16 15 14 14 13 13 12 12 11 11 11 11 11 11 11 11 11 11 11 11 11 11 11 11 11 11 12 12 12 13 13 13 14 14 14
11 12 13 15 16 17 17 17 18 18 18 18 19 19 19 19 19 19 19 19 19 19 19 19 18 18 18 17 17 16 15 15 14 14 13 13 12 12 11 11 11 11 11 11 10 10 10 10 10 10 10 10 10 11 11 11 11 11 12 12 13 13
12 13 14 15 16 17 17 17 18 18 18 18 18 17 17 18 18 18 18 19 19 19 19 19 19 18 18 18 18 17 17 17 16 16 15 15 15 14 13 13 13 12 12 11 11 11 11 11 11 11 11 10 10 10 10 11 11 11 11 11 11 11
13 13 14 15 16 16 17 17 17 16 16 16 15 15 15 16 16 16 16 16 17 17 17 17 17 17 17 17 17 17 17 17 16 16 16 16 15 15 15 14 14 14 13 13 13 12 12 12 12 12 12 11 11 11 11 11 11 11 11 11 11 10
13 14 14 14 15 15 15 15 15 15 15 14 14 14 14 14 14 14 14 14 15 15 15 15 15 15 15 15 15 15 15 15 15 14 14 14 14 14 14 14 14 14 13 13 13 13 12 13 12 13 13 13 13 12 12 12 11 11 11 11 11 11
14 13 14 13 14 14 14 14 14 14 14 14 14 14 15 15 15 14 14 14 14 14 14 14 13 13 13 13 13 13 13 13 13 13 13 13 12 13 13 13 13 13 13 13 13 13 12 12 12 12 13 13 13 13 13 13 13 12 12 12 11 12
13 13 13 12 12 12 12 13 13 14 14 14 14 14 15 15 15 15 15 15 15 15 15 14 14 13 13 13 13 13 14 14 13 12 12 12 11 11 11 11 12 12 12 12 12 13 13 13 13 12 12 12 12 13 13 13 14 14 14 13 13 12
12 12 12 11 11 11 11 12 13 13 13 14 14 14 14 15 15 16 16 16 16 15 15 15 14 14 14 14 14 14 15 15 15 13 12 11 11 11 10 10 10 11 11 12 12 12 13 13 13 13 12 12 12 12 12 12 13 14 14 15 15 14
11 11 11 10 10 10 11 11 12 12 12 13 13 14 14 14 15 15 16 16 16 15 15 14 14 13 13 12 13 14 16 16 16 15 14 13 12 11 11 11 10 10 10 10 11 11 12 12 12 12 12 12 12 12 12 13 13 13 14 15 15 16
10 9 9 9 9 9 10 10 11 11 11 11 12 13 13 14 14 15 16 17 17 17 17 16 16 15 13 13 13 14 15 17 18 18 18 17 15 13 12 12 12 11 11 11 11 11 11 11 12 12 13 13 13 13 13 13 14 14 14 15 15 16
8 8 8 7 7 8 9 9 9 10 11 11 11 12 13 13 14 15 17 18 19 19 20 20 19 19 18 16 15 15 16 17 18 19 19 20 19 18 16 15 14 14 14 13 13 13 13 13 13 13 14 14 14 14 14 14 14 14 14 15 15 16
7 7 6 6 6 6 7 7 8 9 10 10 10 11 11 12 13 15 17 18 19 20 20 21 21 21 21 20 18 17 16 16 16 17 18 18 19 19 19 18 18 17 17 17 16 16 16 15 15 15 15 15 16 16 16 16 15 15 14 15 16 17
7 5 5 4 4 4 5 6 7 7 8 9 9 9 9 10 12 14 15 17 18 19 20 21 21 21 21 20 19 17 16 16 16 17 17 17 18 18 18 18 18 18 18 18 18 18 18 18 18 18 18 17 17 17 17 18 18 18 17 17 18 19
6 5 4 2 2 2 3 4 5 6 7 7 8 7 7 8 10 12 14 15 17 18 19 19 19 19 19 18 18 18 18 18 18 19 19 19 19 20 20 20 19 19 19 19 19 19 19 20 20 20 20 20 19 19 19 19 19 20 20 20 21 22
6 5 3 2 1 1 2 3 4 5 5 6 6 5 5 6 8 10 11 13 14 16 17 17 17 17 16 16 16 17 18 19 20 20 21 22 22 22 23 23 23 23 23 23 22 22 22 23 23 23 23 23 22 22 22 22 22 22 22 22 22 22
Wind_Direction
11 16 18 20 20 22 28 34 37 38 38 36 33 32 32 35 38 42 46 45 46 48 52 56 62 75 88 85 78 76 80 87 88 85 86 88 92 100 110 116 115 112 110 107 110 112 111 112 118 129 146 153 163 175 186 314 347 341 298 260 261 255
21 24 26 27 29 32 39 43 44 43 42 42 42 42 42 43 44 46 49 51 51 54 57 60 65 75 84 85 82 81 81 84 83 82 84 85 90 98 106 109 108 107 105 107 109 109 110 112 116 120 120 109 85 109 25 1 10 348 290 227 259 254
29 30 31 34 37 39 43 46 47 47 48 49 50 51 51 52 52 51 52 54 56 59 62 64 66 71 77 78 78 79 80 82 83 85 89 93 95 96 100 103 102 102 102 103 107 113 118 117 117 111 97 82 73 83 27 18 30 34 56 101 96 152
36 36 37 40 43 43 43 47 49 50 53 56 57 57 56 58 58 56 56 58 61 63 64 66 68 72 74 76 77 78 79 79 81 86 89 91 89 86 87 89 89 90 91 92 101 110 115 114 111 98 83 75 77 74 39 27 40 52 61 75 74 76
42 42 42 43 45 45 45 48 50 52 55 57 60 60 60 60 60 59 60 63 65 66 67 68 70 73 75 75 76 77 78 78 79 81 82 81 79 78 78 78 78 80 83 87 93 98 101 103 96 84 75 70 72 68 49 34 46 56 60 70 73 77
47 48 47 47 47 47 48 51 53 55 57 59 60 63 63 63 63 63 64 65 67 69 70 70 71 73 75 76 76 76 77 79 79 79 79 79 76 73 72 74 75 77 82 87 89 90 89 87 79 73 68 64 61 58 53 45 53 60 63 72 72 73
52 52 52 52 52 52 54 57 59 59 60 61 62 64 66 67 67 67 67 68 68 70 71 72 73 75 76 77 77 76 76 77 79 80 80 79 76 73 72 75 77 80 84 86 87 86 83 80 73 68 63 57 52 53 54 52 57 61 64 72 67 61
56 56 56 56 56 57 59 62 62 61 61 62 63 65 67 69 71 71 71 70 70 70 72 73 75 76 77 78 78 77 77 77 78 79 80 79 77 75 74 74 76 78 80 80 79 78 77 75 71 66 60 53 49 53 58 55 57 58 59 67 62 51
59 59 60 59 58 57 58 60 61 61 62 64 65 66 68 70 73 73 72 71 70 71 73 75 78 80 80 79 79 78 77 77 77 78 78 78 75 74 73 72 72 73 74 75 73 70 68 67 65 63 60 55 53 55 56 55 58 56 55 61 60 52
62 62 62 61 59 58 58 59 60 62 64 65 66 66 67 69 71 73 73 71 70 71 74 77 80 81 82 81 80 78 77 77 77 78 78 78 76 74 74 73 73 72 72 73 72 70 67 64 61 60 60 59 59 59 56 56 58 56 53 55 57 52
65 64 63 62 61 60 60 60 61 63 64 65 65 65 66 66 67 68 70 71 70 71 74 78 81 82 83 84 83 82 80 79 78 78 79 79 78 75 74 73 73 72 72 71 70 69 67 66 63 61 61 60 60 59 58 56 57 55 52 51 51 47
66 64 64 63 63 62 61 62 62 63 63 64 66 67 66 66 65 65 67 68 70 72 75 78 80 81 82 84 86 86 85 83 81 79 79 79 78 75 72 70 69 69 68 68 67 66 66 65 64 62 61 60 59 58 57 56 55 54 51 49 48 45
67 64 64 63 63 62 61 61 62 63 64 64 66 68 68 68 67 66 67 67 68 71 74 76 78 79 79 81 85 87 87 85 83 81 79 78 76 73 69 66 65 64 63 63 62 62 61 61 62 61 61 59 59 59 59 58 56 55 54 51 49 46
68 64 63 62 61 61 60 60 61 62 63 64 64 66 68 69 69 69 68 67 66 68 70 74 76 77 79 80 83 84 85 84 83 81 78 75 72 68 65 62 61 59 58 57 57 57 56 56 57 58 59 57 56 56 57 57 56 55 54 53 52 49
70 65 61 59 58 59 59 59 59 60 62 63 63 64 66 68 69 70 70 68 67 67 68 71 73 75 77 79 82 84 85 85 84 82 79 74 70 65 61 58 56 55 54 53 51 51 51 51 51 51 53 54 52 50 50 50 50 50 51 52 52 51
72 63 58 58 57 57 58 58 58 58 60 61 62 63 64 66 68 70 71 71 70 69 69 70 72 73 75 77 81 84 86 86 85 82 79 74 69 63 57 52 50 51 51 52 51 48 46 45 44 45 45 46 46 45 44 43 44 44 45 46 47 48
69 58 55 58 58 58 58 58 57 57 58 60 62 63 63 64 66 68 69 71 72 72 73 73 73 73 74 75 78 80 81 81 80 79 77 74 70 65 59 53 47 46 47 48 50 49 46 43 40 40 40 40 41 41 40 40 39 39 39 40 40 42
63 55 56 59 61 62 62 61 60 59 59 59 61 63 63 63 64 65 67 68 70 72 74 76 76 75 75 75 76 76 76 76 75 74 73 72 71 68 64 59 52 48 46 46 49 51 52 50 45 42 41 41 41 41 40 39 38 38 37 37 35 35
59 56 59 62 65 67 67 65 64 63 63 62 62 63 64 64 65 65 65 65 66 68 70 73 74 75 76 76 76 75 74 73 72 72 71 71 70 70 68 66 63 58 54 52 52 54 56 56 54 52 49 47 47 46 45 43 42 41 40 40 38 35
61 61 65 68 70 73 73 73 70 67 67 66 65 64 64 65 66 67 66 66 66 66 68 70 71 72 72 73 73 73 72 70 69 69 68 69 69 70 71 70 69 66 62 58 55 54 54 53 53 54 52 50 49 47 47 46 45 44 44 43 42 41
68 68 72 75 76 78 79 79 76 72 71 71 70 68 68 68 68 69 68 67 67 66 66 67 68 69 68 68 67 68 68 66 65 63 62 62 63 64 65 66 64 62 60 57 53 50 48 47 46 46 46 45 45 44 44 43 43 42 43 44 44 44
76 76 79 81 82 83 83 82 81 78 76 75 74 73 72 72 72 72 71 70 69 67 66 66 66 67 66 65 64 62 62 62 61 60 57 55 53 53 52 53 53 52 50 48 46 44 43 41 40 39 38 36 36 36 37 36 36 34 33 35 39 42
83 84 85 87 87 86 86 85 84 82 80 77 76 75 74 73 73 73 73 72 71 70 69 68 67 67 67 66 64 62 60 59 59 59 57 54 52 49 46 45 44 44 43 41 39 38 36 35 34 34 33 31 29 27 26 26 26 25 23 22 23 27
91 91 91 91 90 89 87 85 84 81 79 77 76 75 74 74 74 74 74 73 72 71 70 70 68 67 66 65 64 63 61 59 57 57 56 55 54 51 48 45 43 41 39 37 36 34 32 30 28 27 25 25 23 21 20 18 16 16 16 16 14 13
97 97 96 95 93 90 88 85 82 80 78 76 75 74 74 73 72 71 71 71 70 69 69 68 67 66 65 64 62 61 59 58 56 55 54 54 53 51 49 47 46 43 42 39 38 36 33 31 29 26 23 21 18 15 14 12 8 6 7 7 7 4
104 103 101 98 95 91 88 84 81 78 75 73 73 72 71 70 69 68 67 66 66 65 64 64 64 63 63 62 61 60 58 57 55 54 52 51 50 50 49 47 46 45 43 42 40 38 36 34 31 29 27 24 22 19 15 11 5 1 359 358 356 354
111 109 105 101 96 91 87 83 79 76 73 71 69 69 68 67 67 66 65 65 65 63 62 60 59 59 59 58 59 58 57 56 55 53 52 50 49 48 46 45 43 42 40 38 37 36 34 32 30 27 25 23 21 19 17 14 10 5 359 355 352 347
117 114 108 102 96 91 86 82 78 74 71 69 66 65 66 66 67 68 68 67 67 67 66 64 62 60 59 57 55 53 51 49 48 47 46 45 44 43 41 39 37 35 33 31 29 27 26 24 23 21 19 17 14 12 10 9 7 5 1 358 355 349
120 116 108 101 95 90 86 81 76 71 69 66 63 62 63 64 66 66 67 66 66 65 64 63 61 60 59 58 56 53 49 44 40 38 37 37 36 36 35 33 31 28 26 24 21 19 17 15 13 11 10 9 7 4 2 360 357 355 353 351 350 348
122 116 108 102 96 90 86 82 76 71 69 65 62 61 62 63 64 65 65 64 62 60 58 55 53 52 53 54 54 49 42 37 34 34 33 32 31 30 29 28 26 25 22 19 17 14 12 9 6 3 0 358 357 355 352 350 348 346 344 341 340 338
126 119 110 105 98 91 86 82 76 71 69 66 62 61 63 64 66 67 67 65 63 60 57 53 50 48 47 48 44 37 34 35 36 37 36 33 30 27 25 23 22 21 19 17 15 12 9 6 2 358 353 350 348 346 344 343 342 340 338 335 333 331
131 122 115 110 102 93 87 82 76 71 69 65 61 62 64 66 67 69 69 67 65 62 58 54 49 44 41 39 36 35 39 43 44 45 44 41 37 32 26 22 19 16 14 12 11 10 8 5 0 356 351 348 345 343 341 340 338 337 336 333 331 328
138 129 121 114 105 94 86 81 75 70 65 61 60 62 65 67 68 69 70 68 65 62 58 53 49 45 43 43 44 48 51 48 46 46 45 44 42 39 35 30 24 19 15 11 8 6 5 3 360 356 352 348 345 342 340 338 336 335 334 333 331 328
148 137 129 121 107 95 84 76 70 65 62 58 58 61 65 69 71 72 71 69 65 61 57 52 49 45 44 46 49 52 51 45 40 39 40 41 41 40 38 35 31 26 21 16 12 8 5 2 359 356 353 349 344 339 334 332 330 329 329 330 329 328
161 152 143 132 112 94 80 68 61 59 58 55 57 63 66 70 74 74 72 68 63 59 55 52 48 45 44 46 48 48 47 42 38 38 39 39 39 39 37 34 30 27 22 18 13 9 6 2 357 354 351 348 343 337 331 327 324 321 318 317 318 319
175 168 164 158 125 90 69 56 48 49 52 51 57 67 72 74 78 76 71 67 63 59 56 52 49 48 46 46 48 50 50 48 46 45 43 42 41 39 36 32 28 23 18 13 8 2 357 352 348 344 341 339 335 331 328 326 324 320 314 311 310 311
189 191 195 203 190 58 37 35 31 38 46 48 57 74 82 83 85 82 75 69 64 59 54 50 47 47 47 50 53 55 55 53 50 47 44 41 39 37 35 32 28 23 18 12 7 1 354 348 343 339 335 331 327 324 322 321 322 321 317 313 310 309
Height
5788 5786 5784 5783 5781 5780 5778 5776 5774 5773 5772 5771 5770 5768 5767 5765 5764 5762 5760 5758 5756 5754 5752 5752 5751 5750 5750 5750 5749 5750 5749 5749 5749 5749 5750 5750 5750 5751 5752 5752 5752 5752 5752 5753 5753 5754 5754 5755 5755 5755 5755 5756 5756 5756 5757 5756 5756 5756 5756 5755 5755 5755
5788 5786 5784 5783 5782 5780 5778 5776 5775 5774 5773 5772 5771 5769 5768 5767 5765 5763 5761 5759 5757 5755 5754 5753 5752 5752 5751 5751 5751 5751 5751 5750 5750 5750 5751 5751 5752 5752 5753 5752 5752 5753 5753 5753 5754 5754 5754 5755 5755 5755 5756 5756 5756 5756 5756 5755 5756 5755 5754 5755 5755 5755
5788 5786 5785 5783 5782 5780 5779 5777 5776 5775 5774 5773 5772 5770 5769 5768 5766 5765 5763 5761 5759 5757 5756 5754 5754 5753 5753 5752 5752 5752 5752 5752 5752 5752 5753 5753 5753 5753 5753 5753 5754 5754 5754 5754 5754 5754 5755 5755 5755 5756 5756 5756 5756 5756 5755 5755 5756 5754 5753 5755 5755 5754
5788 5786 5785 5783 5782 5781 5779 5778 5777 5777 5775 5774 5773 5772 5771 5769 5768 5766 5765 5763 5761 5759 5758 5756 5755 5755 5755 5754 5754 5754 5754 5754 5753 5754 5754 5754 5754 5754 5754 5755 5755 5755 5755 5755 5755 5755 5755 5755 5756 5756 5757 5756 5756 5756 5755 5755 5755 5754 5754 5754 5754 5755
5789 5787 5785 5784 5782 5781 5781 5780 5779 5778 5777 5775 5774 5773 5772 5770 5769 5768 5766 5764 5763 5761 5760 5759 5758 5757 5757 5757 5756 5756 5756 5756 5755 5755 5755 5754 5755 5755 5755 5756 5756 5756 5756 5756 5756 5756 5756 5756 5756 5757 5757 5757 5757 5756 5756 5755 5755 5755 5755 5754 5755 5755
5790 5788 5786 5785 5784 5783 5782 5781 5779 5778 5777 5776 5775 5774 5773 5772 5770 5769 5767 5766 5764 5763 5762 5761 5760 5760 5759 5759 5758 5758 5758 5757 5757 5757 5756 5756 5756 5756 5756 5756 5757 5757 5757 5757 5757 5757 5757 5757 5757 5757 5757 5757 5757 5757 5756 5756 5755 5755 5754 5754 5755 5754
5791 5789 5787 5786 5785 5784 5783 5781 5780 5779 5778 5777 5776 5775 5774 5773 5772 5770 5769 5768 5766 5765 5764 5763 5763 5762 5762 5761 5760 5760 5759 5759 5759 5758 5758 5758 5757 5757 5757 5758 5758 5758 5758 5759 5759 5758 5758 5758 5758 5758 5758 5758 5757 5757 5756 5756 5756 5755 5755 5755 5755 5754
5792 5790 5789 5787 5786 5785 5784 5782 5781 5780 5779 5778 5777 5776 5775 5774 5773 5771 5770 5769 5768 5767 5767 5766 5765 5764 5764 5763 5762 5762 5761 5761 5760 5760 5760 5759 5759 5759 5759 5759 5759 5759 5759 5760 5760 5760 5759 5759 5759 5758 5758 5758 5758 5757 5757 5757 5756 5756 5756 5755 5755 5755
5793 5792 5790 5789 5788 5786 5785 5783 5782 5781 5780 5779 5778 5777 5776 5775 5774 5772 5771 5771 5770 5769 5768 5768 5767 5766 5766 5765 5765 5764 5763 5763 5762 5762 5762 5761 5761 5761 5760 5760 5760 5760 5761 5761 5761 5761 5760 5760 5759 5759 5759 5759 5758 5758 5758 5758 5758 5757 5757 5757 5757 5756
5795 5793 5792 5790 5789 5788 5786 5785 5783 5783 5781 5780 5779 5778 5777 5776 5775 5774 5773 5772 5771 5771 5770 5769 5769 5768 5767 5767 5767 5766 5765 5765 5764 5764 5764 5763 5763 5763 5762 5762 5762 5762 5762 5761 5761 5761 5761 5761 5760 5760 5760 5760 5760 5759 5759 5759 5759 5758 5758 5758 5758 5758
5796 5795 5794 5792 5791 5789 5788 5786 5785 5784 5782 5781 5780 5779 5778 5777 5776 5775 5774 5773 5773 5772 5772 5771 5770 5769 5769 5769 5768 5768 5767 5766 5766 5766 5765 5765 5765 5765 5765 5764 5764 5763 5763 5763 5763 5762 5762 5762 5762 5761 5761 5761 5761 5760 5760 5760 5760 5759 5759 5759 5759 5759
5798 5796 5795 5794 5792 5791 5789 5788 5786 5785 5783 5782 5781 5780 5779 5778 5777 5776 5775 5775 5774 5774 5773 5773 5772 5771 5771 5770 5770 5769 5769 5768 5768 5767 5767 5767 5767 5767 5767 5766 5766 5765 5765 5764 5764 5764 5763 5763 5763 5763 5763 5762 5762 5762 5762 5762 5761 5761 5760 5760 5761 5760
5799 5798 5797 5795 5794 5792 5790 5789 5788 5786 5785 5784 5782 5781 5780 5780 5779 5778 5777 5776 5776 5775 5775 5774 5773 5772 5772 5772 5772 5771 5771 5770 5770 5769 5769 5769 5769 5769 5769 5768 5768 5767 5767 5766 5766 5765 5765 5764 5764 5764 5764 5764 5764 5764 5764 5763 5763 5762 5762 5762 5761 5761
5800 5799 5798 5796 5795 5793 5792 5791 5789 5788 5787 5785 5784 5783 5782 5781 5781 5780 5779 5778 5778 5777 5776 5775 5775 5774 5774 5773 5773 5773 5773 5773 5772 5772 5771 5771 5771 5771 5770 5770 5770 5769 5768 5768 5767 5767 5766 5766 5766 5765 5765 5765 5765 5765 5765 5765 5764 5764 5763 5763 5763 5762
5801 5800 5799 5797 5796 5794 5793 5792 5791 5789 5788 5787 5786 5785 5784 5783 5783 5782 5781 5781 5780 5779 5778 5777 5776 5776 5775 5775 5775 5775 5775 5775 5774 5774 5774 5773 5773 5772 5772 5771 5771 5771 5770 5770 5769 5768 5768 5768 5767 5767 5766 5766 5766 5766 5766 5766 5765 5765 5764 5764 5764 5763
5802 5801 5800 5798 5797 5795 5794 5793 5792 5791 5790 5789 5788 5787 5787 5786 5785 5784 5783 5783 5782 5781 5780 5779 5779 5778 5777 5777 5777 5777 5776 5776 5776 5776 5776 5776 5775 5774 5774 5773 5772 5772 5772 5772 5771 5770 5770 5769 5769 5768 5768 5767 5767 5767 5767 5767 5766 5766 5765 5765 5765 5764
5803 5802 5800 5799 5798 5796 5795 5794 5793 5792 5792 5791 5790 5790 5789 5788 5787 5786 5785 5785 5784 5783 5783 5782 5781 5780 5780 5779 5779 5779 5779 5778 5778 5778 5778 5778 5777 5777 5776 5775 5774 5773 5773 5773 5773 5772 5771 5771 5770 5770 5769 5769 5769 5768 5768 5768 5767 5767 5766 5766 5766 5766
5803 5802 5801 5800 5799 5798 5797 5796 5795 5794 5793 5793 5792 5791 5791 5790 5789 5788 5787 5787 5786 5785 5784 5784 5783 5782 5782 5781 5781 5781 5780 5780 5780 5780 5780 5780 5779 5779 5778 5777 5776 5775 5775 5774 5774 5774 5773 5773 5772 5771 5771 5770 5770 5769 5769 5769 5768 5768 5768 5767 5767 5767
5804 5803 5802 5801 5800 5799 5798 5797 5796 5796 5795 5794 5794 5793 5792 5791 5791 5790 5789 5789 5788 5787 5786 5785 5785 5784 5784 5783 5783 5782 5782 5782 5782 5781 5781 5781 5780 5780 5780 5779 5778 5777 5776 5776 5775 5775 5775 5774 5774 5773 5773 5772 5771 5771 5771 5770 5770 5769 5769 5768 5768 5768
5804 5804 5803 5802 5801 5800 5799 5798 5798 5797 5796 5796 5795 5795 5794 5793 5792 5792 5791 5790 5789 5789 5788 5787 5786 5786 5785 5785 5784 5784 5784 5783 5783 5782 5782 5782 5781 5781 5781 5780 5780 5779 5778 5778 5777 5777 5776 5776 5775 5775 5774 5774 5773 5773 5772 5772 5771 5771 5770 5770 5770 5769
5805 5805 5804 5803 5802 5801 5801 5800 5799 5799 5798 5797 5797 5796 5796 5795 5794 5793 5792 5792 5791 5790 5789 5789 5788 5787 5787 5787 5786 5786 5785 5785 5784 5784 5783 5783 5783 5782 5782 5782 5781 5781 5780 5780 5779 5779 5778 5777 5777 5776 5776 5775 5775 5774 5774 5773 5773 5772 5772 5771 5771 5771
5806 5805 5805 5804 5803 5803 5802 5801 5801 5800 5800 5799 5799 5798 5797 5796 5795 5795 5794 5793 5792 5791 5791 5790 5789 5789 5788 5788 5788 5787 5787 5786 5786 5785 5785 5784 5784 5784 5783 5783 5783 5782 5782 5781 5781 5780 5780 5779 5778 5778 5777 5776 5776 5775 5775 5775 5774 5773 5773 5772 5772 5772
5807 5806 5806 5805 5804 5804 5803 5803 5803 5802 5802 5801 5800 5800 5799 5798 5797 5796 5795 5795 5794 5793 5792 5792 5791 5790 5790 5789 5789 5788 5788 5787 5787 5787 5786 5786 5785 5785 5784 5784 5784 5783 5783 5782 5782 5781 5781 5780 5780 5779 5778 5778 5777 5777 5776 5776 5775 5775 5774 5773 5773 5772
5807 5807 5807 5806 5806 5805 5805 5805 5804 5804 5803 5803 5802 5802 5801 5800 5799 5798 5797 5796 5796 5795 5794 5793 5793 5792 5791 5791 5790 5790 5789 5789 5788 5788 5787 5787 5786 5786 5785 5785 5784 5784 5783 5783 5783 5782 5782 5781 5780 5780 5779 5779 5778 5778 5777 5777 5776 5776 5775 5775 5774 5773
5808 5808 5808 5807 5807 5807 5806 5806 5806 5805 5805 5804 5804 5803 5802 5802 5801 5800 5799 5798 5797 5797 5796 5795 5795 5794 5793 5792 5792 5791 5791 5790 5790 5789 5788 5788 5787 5787 5786 5786 5785 5784 5784 5784 5783 5783 5782 5782 5781 5781 5780 5780 5779 5778 5778 5777 5777 5776 5776 5775 5775 5774
5809 5809 5809 5809 5808 5808 5808 5807 5807 5807 5806 5806 5805 5805 5804 5803 5802 5801 5800 5800 5799 5798 5797 5797 5796 5796 5795 5794 5794 5793 5792 5792 5791 5791 5790 5789 5789 5788 5787 5787 5786 5786 5785 5784 5784 5783 5783 5782 5782 5781 5781 5780 5779 5779 5778 5778 5777 5776 5776 5775 5775 5775
5810 5810 5810 5810 5810 5809 5809 5809 5808 5808 5807 5807 5806 5806 5805 5804 5803 5802 5802 5801 5800 5799 5799 5798 5797 5797 5796 5795 5795 5794 5794 5793 5792 5792 5791 5790 5790 5789 5788 5788 5787 5787 5786 5785 5785 5784 5783 5783 5782 5782 5781 5780 5780 5779 5778 5778 5777 5777 5776 5775 5775 5774
5811 5811 5811 5811 5811 5811 5810 5810 5809 5809 5809 5808 5807 5807 5806 5805 5804 5803 5803 5802 5801 5800 5800 5799 5798 5798 5797 5796 5796 5795 5794 5794 5793 5792 5792 5791 5790 5790 5789 5789 5788 5787 5787 5786 5785 5785 5784 5783 5783 5782 5781 5780 5780 5779 5778 5778 5777 5776 5776 5775 5775 5774
5812 5812 5812 5812 5812 5812 5811 5811 5811 5810 5809 5809 5808 5808 5807 5806 5805 5804 5803 5803 5802 5801 5800 5800 5799 5799 5798 5797 5797 5796 5795 5795 5794 5793 5792 5791 5791 5790 5790 5789 5789 5788 5787 5787 5786 5785 5785 5784 5783 5782 5781 5781 5780 5779 5778 5778 5777 5776 5776 5775 5775 5774
5813 5813 5813 5813 5813 5813 5812 5812 5812 5811 5810 5810 5809 5809 5808 5807 5806 5805 5804 5803 5802 5802 5801 5801 5800 5799 5798 5798 5797 5797 5796 5795 5794 5794 5793 5792 5791 5791 5790 5790 5789 5788 5788 5787 5787 5786 5785 5785 5784 5783 5782 5781 5780 5779 5779 5778 5777 5776 5776 5775 5774 5774
5814 5814 5814 5814 5814 5814 5813 5813 5813 5812 5812 5811 5811 5810 5809 5808 5807 5806 5805 5804 5804 5803 5802 5801 5801 5800 5799 5798 5798 5797 5796 5796 5795 5794 5793 5792 5792 5791 5790 5790 5789 5789 5788 5787 5787 5786 5785 5785 5784 5783 5782 5781 5781 5780 5779 5778 5777 5776 5776 5775 5774 5773
5815 5815 5815 5815 5815 5814 5814 5814 5814 5813 5813 5812 5812 5811 5810 5809 5808 5807 5806 5805 5804 5804 5803 5802 5801 5801 5800 5799 5798 5797 5797 5796 5795 5794 5793 5793 5792 5791 5791 5790 5789 5789 5788 5788 5787 5786 5786 5785 5784 5783 5783 5782 5781 5780 5779 5778 5777 5776 5775 5774 5774 5773
5815 5815 5815 5815 5815 5815 5815 5815 5814 5814 5814 5813 5813 5812 5811 5810 5810 5809 5807 5806 5805 5804 5804 5803 5802 5801 5800 5799 5798 5798 5797 5797 5796 5795 5794 5793 5792 5792 5791 5790 5790 5789 5789 5788 5787 5787 5786 5785 5784 5784 5783 5782 5781 5780 5780 5779 5778 5776 5775 5774 5773 5772
5815 5815 5815 5815 5815 5815 5815 5815 5815 5814 5814 5814 5813 5813 5812 5811 5811 5810 5808 5807 5806 5805 5805 5804 5803 5802 5801 5800 5799 5798 5798 5797 5797 5796 5795 5794 5793 5792 5791 5791 5790 5790 5789 5788 5788 5787 5786 5785 5784 5784 5783 5782 5781 5780 5779 5778 5777 5776 5775 5774 5772 5771
5815 5815 5816 5815 5815 5815 5815 5815 5815 5815 5814 5814 5813 5813 5813 5812 5811 5810 5809 5808 5807 5807 5806 5805 5804 5803 5802 5801 5800 5799 5798 5798 5797 5796 5795 5794 5793 5793 5792 5791 5790 5790 5789 5789 5788 5787 5786 5785 5784 5783 5783 5782 5781 5780 5779 5778 5777 5776 5774 5773 5772 5770
5815 5815 5815 5815 5815 5815 5815 5815 5815 5815 5815 5814 5813 5813 5813 5812 5811 5811 5810 5809 5808 5808 5807 5806 5805 5804 5803 5802 5801 5800 5799 5798 5798 5797 5796 5795 5794 5793 5792 5791 5790 5790 5789 5789 5788 5787 5786 5785 5784 5783 5782 5781 5780 5778 5777 5776 5775 5774 5773 5771 5770 5769
5815 5815 5815 5815 5815 5815 5815 5815 5815 5815 5814 5814 5813 5813 5813 5812 5812 5811 5811 5810 5809 5809 5808 5808 5807 5806 5805 5804 5802 5801 5800 5799 5798 5797 5796 5795 5794 5793 5792 5791 5790 5789 5788 5788 5787 5786 5785 5784 5783 5781 5780 5779 5778 5776 5775 5774 5773 5772 5770 5769 5768 5767